Richmond, VA

5:16 PM EST on November 18, 2017 (GMT -0500)
Richmond International

Weather History for KRIC - July, 2014

Change the Weather History Date:

Wednesday, July 2, 2014

  Actual Average Record
Temperature  
Mean Temperature 88 °F 79 °F  
Max Temperature 99 °F 90 °F 100 °F (1953)
Min Temperature 76 °F 68 °F 51 °F (1965)
Degree Days  
Heating Degree Days 0 0  
Month to date heating degree days 0 0  
Since 1 June heating degree days 0 7  
Since 1 July heating degree days 0 0  
Cooling Degree Days 23 14  
Month to date cooling degree days 41 28  
Year to date cooling degree days 604 504  
Since 1 June cooling degree days 396 343  
Growing Degree Days 37 (Base 50)    
Moisture  
Dew Point 71 °F    
Average Humidity 61    
Maximum Humidity 82    
Minimum Humidity 39    
Precipitation  
Precipitation 0.00 in 0.13 in 2.56 in (1889)
Month to date precipitation 0.00 0.26  
Year to date precipitation 19.43 21.08  
Snow  
Snow 0.00 in 0.00 in 0.00 in (2002)
Month to date snowfall 0.0 0.0  
Since 1 July snowfall 0.0 0.0  
Snow Depth 0.00 in    
Sea Level Pressure  
Sea Level Pressure 29.91 in    
Wind  
Wind Speed 10 mph (SSW)    
Max Wind Speed 21 mph    
Max Gust Speed 25 mph    
Visibility 10 miles    
Events      
T = Trace of Precipitation, MM = Missing Value Source: NWS Daily Summary

Daily Weather History Graph

Daily Weather History Graph

Search for Another Location

Airport or City:

Trip Planner

Search our weather history database for the weather conditions in past years. The results will help you decide how hot, cold, wet, or windy it might be!

Date:

Astronomy

Jul. 02, 2014 Rise Set
Actual Time 5:52 AM EDT 8:34 PM EDT
Civil Twilight 5:21 AM EDT 9:05 PM EDT
Nautical Twilight 4:42 AM EDT 9:43 PM EDT
Astronomical Twilight 3:59 AM EDT 10:27 PM EDT
Moon 10:47 AM EDT (7/2) 11:33 PM EDT (7/2)
Length of Visible Light 15h 43m
Length of Day
14h 41m
Waxing Crescent, 24% of the Moon is Illuminated
Jul 2
Waxing Crescent
Jul 5
First Quarter
Jul 12
Full
Jul 18
Last Quarter
Jul 26
New

Hourly Weather History & Observations

Time (EDT) Temp. Heat Index Dew Point Humidity Pressure Visibility Wind Dir Wind Speed Gust Speed Precip Events Conditions
12:54 AM 80.1 °F 83.2 °F 70.0 °F 71% 29.91 in 10.0 mi South 10.4 mph - N/A   Partly Cloudy
1:54 AM 80.1 °F 83.2 °F 70.0 °F 71% 29.91 in 10.0 mi South 9.2 mph - N/A   Mostly Cloudy
2:54 AM 79.0 °F - 71.1 °F 77% 29.90 in 10.0 mi South 10.4 mph - N/A   Mostly Cloudy
3:54 AM 78.1 °F - 71.1 °F 79% 29.90 in 10.0 mi SSW 10.4 mph - N/A   Mostly Cloudy
4:54 AM 78.1 °F - 71.1 °F 79% 29.90 in 10.0 mi SSW 8.1 mph - N/A   Overcast
5:54 AM 75.9 °F - 70.0 °F 82% 29.91 in 10.0 mi SSW 8.1 mph - N/A   Scattered Clouds
6:54 AM 78.1 °F - 70.0 °F 76% 29.92 in 10.0 mi SSW 6.9 mph - N/A   Scattered Clouds
7:54 AM 81.0 °F 84.9 °F 71.1 °F 72% 29.92 in 10.0 mi SSW 9.2 mph - N/A   Scattered Clouds
8:54 AM 82.9 °F 88.0 °F 72.0 °F 69% 29.91 in 10.0 mi SW 9.2 mph - N/A   Partly Cloudy
9:54 AM 87.1 °F 94.5 °F 73.0 °F 63% 29.91 in 10.0 mi SSW 10.4 mph - N/A   Partly Cloudy
10:54 AM 90.0 °F 99.0 °F 73.9 °F 59% 29.92 in 10.0 mi SSE 8.1 mph - N/A   Partly Cloudy
11:54 AM 91.9 °F 101.3 °F 73.9 °F 55% 29.92 in 10.0 mi SSW 8.1 mph - N/A   Scattered Clouds
12:54 PM 95.0 °F 103.2 °F 72.0 °F 47% 29.91 in 10.0 mi SSW 10.4 mph - N/A   Scattered Clouds
1:54 PM 97.0 °F 105.5 °F 72.0 °F 44% 29.91 in 10.0 mi SSW 11.5 mph - N/A   Scattered Clouds
2:54 PM 98.1 °F 105.0 °F 70.0 °F 40% 29.89 in 10.0 mi SSW 15.0 mph - N/A   Scattered Clouds
3:54 PM 98.1 °F 104.4 °F 69.1 °F 39% 29.88 in 10.0 mi SSW 16.1 mph 25.3 mph N/A   Scattered Clouds
4:54 PM 98.6 °F 105.5 °F 69.8 °F 39% 29.87 in 8.0 mi SW 15.0 mph - N/A   Scattered Clouds
5:54 PM 97.0 °F 103.5 °F 70.0 °F 41% 29.88 in 8.0 mi SSW 12.7 mph - N/A   Scattered Clouds
6:54 PM 95.0 °F 101.3 °F 70.0 °F 44% 29.88 in 8.0 mi SSW 10.4 mph - N/A   Scattered Clouds
7:54 PM 91.0 °F 97.6 °F 71.1 °F 52% 29.89 in 8.0 mi SSW 11.5 mph - N/A   Scattered Clouds
8:54 PM 88.0 °F 94.7 °F 72.0 °F 59% 29.90 in 9.0 mi South 9.2 mph - N/A   Scattered Clouds
9:54 PM 87.1 °F 93.6 °F 72.0 °F 61% 29.92 in 9.0 mi South 9.2 mph - N/A   Scattered Clouds
10:54 PM 84.9 °F 90.7 °F 72.0 °F 65% 29.94 in 10.0 mi South 5.8 mph - N/A   Mostly Cloudy
11:54 PM 86.0 °F 91.5 °F 71.1 °F 61% 29.96 in 10.0 mi Calm Calm - N/A   Overcast